Location: ???? ?????????
(31.1304°N, 31.7111°E)
Time: 18:33:27
(UTC+00:00)

JUGNU - Visible Passes

Search period start: 16 April 2021 00:00
Search period end: 26 April 2021 00:00
Orbit: 836 x 864 km, 20.0° (Epoch: 15 April)

Date Brightness Start Highest point End Pass type
(mag) Time Alt. Az. Time Alt. Az. Time Alt. Az.
19 Apr ? 02:56:56 10° SSW 03:01:07 20° SSE 03:05:17 10° ESE visible
20 Apr ? 02:41:29 10° SW 02:45:51 21° S 02:50:10 10° ESE visible
21 Apr ? 02:26:11 10° SW 02:30:34 22° S 02:35:02 10° ESE visible
22 Apr ? 02:11:51 14° SSW 02:15:18 23° S 02:19:53 10° ESE visible
23 Apr ? 01:57:31 19° SSW 02:00:00 24° S 02:04:42 10° ESE visible
24 Apr ? 01:43:11 22° SSW 01:44:44 25° S 01:49:31 10° ESE visible
25 Apr ? 01:28:50 25° S 01:29:28 26° S 01:34:19 10° ESE visible
